Location: Artiguedieu
(43.5000°N, 0.5454°E)
Time: 12:49:15
(UTC+00:00)

METEOR-M - Pass Details

Date: 06 December 2020
Orbit: 817 x 818 km, 98.5° (Epoch: 27 January)

Event Time Altitude Azimuth Distance (km) Brightness Sun altitude
Rises 04:42:31 0° 13° (NNE) 3,356 7.4 -27.1°
Reaches altitude 10° 04:44:52 10° 14° (NNE) 2,420 6.6 -26.7°
Maximum altitude 04:50:15 86° 103° (ESE) 826 4.0 -25.7°
Drops below altitude 10° 04:55:35 10° 194° (SSW) 2,404 6.5 -24.7°
Sets 04:57:55 0° 194° (SSW) 3,332 7.3 -24.3°
